Weather Roundup
Issued by NWS Corpus Christi, TX

Home | Current Version | Previous Version | Text Only | Print | Product List | Glossary On
Versions: 1 2 3 4 5 6 7 8 9 10 11 12 13 14 15 16 17 18 19 20 21 22 23 24 25 26 27 28 29 30 31 32 33 34 35 36 37 38 39 40 41 42 43 44 45 46 47 48 49 50
000
ASUS44 KCRP 210210
HRRCRP

SOUTH TEXAS REGIONAL WEATHER ROUNDUP
NATIONAL WEATHER SERVICE CORPUS CHRISTI TX
900 PM CDT THU JUL 20 2017


TXZ229>244-210300-
...CORPUS CHRISTI AREA OBSERVATIONS...

CITY           SKY/WX    TMP DP  RH WIND       PRES   REMARKS
CORPUS CHRISTI PTCLDY    84  77  79 SE13      29.99R HX  94
NAS CORPUS CHR PTCLDY    86  79  79 SE16      30.00R HX  99
ROCKPORT       CLEAR     85  76  74 SE10G20   29.99R HX  94
KINGSVILLE NAS PTCLDY    85  78  80 SE14      29.98S HX  96
ALICE          CLEAR     85  73  67 SE13      29.98R HX  91
ORANGE GROVE   CLEAR     33  32  96 SE20      30.00R WCI  21
FALFURRIAS     CLEAR     87  74  64 SE10G20   29.97S HX  95
$$

...VICTORIA AREA OBSERVATIONS...

CITY           SKY/WX    TMP DP  RH WIND       PRES   REMARKS
VICTORIA       CLEAR     85  75  72 S12       30.00R HX  93
BEEVILLE       FAIR      85  75  70 SE12      29.99S HX  93
PLEASANTON     CLEAR     91  67  44 SE16G22   29.97R HX  94
SAN ANTONIO    PTCLDY    91  70  49 SE24      29.99R HX  96
$$

...LAREDO AREA OBSERVATIONS...

CITY           SKY/WX    TMP DP  RH WIND       PRES   REMARKS
LAREDO         CLEAR     96  66  37 SE17      29.93R HX  99
COTULLA        CLEAR     95  59  30 SE13      29.93R HX  94
DEL RIO        PTCLDY    93  60  33 E6        29.93R HX  93
MCALLEN        CLEAR     89  71  55 SE21      29.98R HX  95
HEBBRONVILLE   CLEAR     89  70  53 SE15G23   29.98S HX  94
$$

...OTHER TEXAS OBSERVATIONS...

CITY           SKY/WX    TMP DP  RH WIND       PRES   REMARKS
BROWNSVILLE    CLEAR     83  76  79 SE12      30.00R HX  91
HOUSTON        PTCLDY    87  75  67 S6        30.00S HX  96
COL. STATION   CLEAR     90  72  55 SE7       29.98S HX  97
AUSTIN         PTCLDY    93  68  43 SE10      29.96S HX  97
WACO           CLEAR     90  67  46 SE7       29.97R HX  93
FORT WORTH     CLEAR     92  71  50 SE12      29.97R HX  98
WICHITA FALLS  CLEAR     91  65  41 SE12      29.95R HX  93
LUBBOCK        PTCLDY    85  59  41 SE7       30.05R
EL PASO        CLOUDY    80  62  54 SW18      30.09R THUNDER
$$

...MARINE OBSERVATIONS...

STATION/POSITION TIME  SKY/WX   TEMP    WIND        PRES    VSBY  WAVE   SWELL
                                AIR SEA DIR/SP/G                  HT/PER HT/PER
                 (UTC)          (F)     (DEG/KT/KT) (MB)    (MI)  (FT/S) (FT/S)
PORT ARANSAS     0200            85 89  130/ 17/ 18 1015.9R
BUOY 90 E PORT A 0150            86 89  110/ 10/ 12 1016.2F         2/ 6   2/ 6
BUOY 45 SE BAFFI 0150            85     150/ 14/ 16 1014.9F         2/ 5
BUOY 200 E PT IS 0150            85 89   50/  2/  4 1017.1S         1/ 5   2/ 5
BUOY 15 E GALVES 0050            87 88  200/ 10/ 12 1016.2          1/ 5
$$




USA.gov is the U.S. government's official web portal to all federal, state and local government web resources and services.